Theta_e
339 340 340 340 339 339 341 342 342 344 344 343 343 343 342 342 343 342 342 343 343 344 344 345 347 349 347 344 342 340 338 337 339 343 344 345 345 345 344 344 344 344 344 345 345 345 346 346 346 347 347 347 347 346 346 346 346 346 346 348 349 350 350 351 352 352 352 351 350 349 349 350 350 351
338 339 339 339 339 339 342 342 342 344 344 343 344 343 342 343 343 342 342 342 342 343 344 345 346 348 348 345 343 341 338 339 341 344 345 346 346 345 344 344 344 345 345 345 346 347 347 347 347 348 348 348 348 348 348 348 347 347 347 347 348 349 349 350 350 350 350 350 350 349 349 349 350 350
339 339 339 340 340 340 342 342 342 343 343 342 344 344 343 343 343 343 342 343 343 343 344 345 345 347 348 347 345 343 341 340 343 345 346 346 346 346 346 345 345 345 345 347 347 347 348 348 348 348 348 348 348 348 348 348 348 348 347 348 348 349 350 349 349 350 349 350 350 350 349 350 349 349
338 339 339 340 341 340 340 342 342 342 343 342 343 343 343 344 344 343 342 341 341 342 343 344 345 346 347 347 346 345 344 342 342 344 346 347 347 346 346 345 345 346 346 347 348 348 348 348 348 347 347 348 349 349 348 349 349 349 348 349 349 349 349 349 349 348 349 349 349 349 349 349 349 348
336 338 339 339 339 339 340 341 341 341 342 342 342 342 343 344 343 343 342 341 342 342 343 343 345 345 346 347 347 347 346 345 343 343 346 347 348 347 345 345 345 346 347 347 346 347 347 346 345 343 343 344 345 346 347 347 348 348 349 350 350 350 350 350 349 349 349 349 349 349 349 348 349 349
336 336 337 337 337 338 340 340 340 341 342 342 341 341 342 342 341 341 342 343 342 342 343 344 344 345 345 345 346 347 348 348 347 345 345 347 347 345 345 345 344 343 344 345 344 345 345 344 342 341 341 342 343 344 345 346 347 348 349 350 350 351 351 351 351 351 351 350 350 350 349 349 349 350
335 336 336 336 336 336 338 340 340 340 341 341 341 341 341 340 340 341 342 342 342 342 342 343 344 344 345 345 345 346 347 348 349 348 347 348 347 345 344 345 345 344 344 345 346 345 344 343 343 343 343 343 343 344 345 346 347 347 348 350 350 350 350 350 350 350 350 350 350 350 350 349 350 350
333 335 337 337 336 335 336 339 341 341 340 340 341 340 339 339 340 341 342 342 342 342 342 343 343 344 345 344 345 345 346 346 347 347 347 347 347 346 345 347 347 345 345 346 347 346 345 344 344 343 343 343 344 344 345 346 346 347 348 348 349 349 349 349 349 348 348 349 349 349 349 350 351 350
330 333 335 335 335 336 335 337 340 341 340 339 340 339 338 339 340 340 340 342 343 343 342 342 343 344 344 344 344 345 345 345 346 347 347 347 346 345 346 348 348 347 347 347 347 346 346 345 345 345 344 343 343 343 343 345 346 346 346 347 347 347 347 348 348 348 348 348 348 348 349 350 350 350
330 332 332 332 334 336 336 336 339 340 339 339 338 338 338 338 339 339 339 340 341 343 342 341 342 344 343 343 344 344 345 345 346 347 347 347 346 345 347 349 348 348 346 346 345 345 345 345 345 346 344 344 342 342 343 344 346 347 346 346 347 347 348 349 350 350 350 349 349 349 348 349 350 350
329 331 332 332 333 335 336 337 338 338 338 338 338 338 339 338 339 339 339 339 340 341 341 342 342 342 343 343 343 344 345 345 345 346 347 348 347 347 348 348 349 348 346 344 344 343 343 344 344 344 344 343 342 342 343 344 346 347 347 346 346 348 348 349 350 351 351 351 350 350 349 349 350 350
328 329 331 332 334 335 336 337 338 338 338 338 337 338 339 339 339 340 340 339 339 340 341 342 342 342 342 343 343 344 344 344 345 345 346 347 347 348 348 348 349 349 348 346 346 345 343 342 343 342 341 341 342 342 343 344 346 346 346 346 347 347 347 348 350 351 352 351 351 349 349 349 350 350
328 329 330 331 333 335 335 336 336 338 338 338 339 340 340 340 340 340 340 339 339 340 340 341 341 342 343 343 343 343 344 344 344 345 345 346 346 348 348 347 347 348 348 347 346 345 343 342 342 341 341 341 341 342 343 344 346 346 346 346 347 346 347 347 349 352 352 351 350 350 350 350 350 350
327 327 329 331 332 333 334 335 336 336 337 338 339 339 338 338 339 339 340 340 339 340 340 340 341 342 342 342 342 343 343 344 344 344 345 345 345 346 346 346 346 347 348 348 347 346 344 342 343 344 344 344 343 343 343 343 345 345 347 347 347 347 348 348 350 351 351 350 350 350 350 350 350 351
324 325 328 331 332 333 333 334 335 335 336 336 337 337 338 338 338 339 340 340 339 339 339 340 340 342 342 341 341 342 342 343 343 344 344 344 345 345 346 346 348 348 348 348 349 348 345 343 344 346 346 346 346 345 345 344 345 346 347 348 347 347 348 350 350 351 351 350 351 350 351 351 351 351
322 323 326 329 332 333 334 334 335 335 335 335 335 336 336 337 338 339 339 339 338 339 339 339 340 341 341 341 341 342 342 342 343 344 344 344 344 345 346 346 349 350 348 348 349 349 347 345 345 346 347 347 347 346 345 344 345 346 348 348 346 346 349 350 350 351 351 350 351 351 350 350 350 350
320 322 323 325 327 330 332 334 335 336 337 336 336 335 336 336 337 338 338 337 338 338 339 339 340 340 341 341 341 342 342 343 343 343 344 344 343 345 346 345 348 349 348 347 348 348 347 346 345 346 347 347 347 346 346 345 345 347 348 347 345 344 347 351 351 351 352 351 350 350 349 349 350 351
320 320 321 322 324 326 327 329 331 334 336 337 337 337 336 336 336 336 337 337 337 338 338 338 340 340 341 341 341 341 343 343 343 343 344 344 343 345 345 345 348 349 348 347 346 347 348 347 345 346 347 347 346 346 347 345 345 347 347 346 345 343 346 349 350 351 351 350 349 348 347 347 348 349
319 319 320 321 321 322 324 325 326 328 331 334 337 338 337 336 336 336 336 336 336 337 337 337 338 339 340 340 341 342 342 342 343 343 344 344 345 345 345 346 346 347 347 345 345 346 347 347 345 346 347 346 346 346 346 345 346 347 347 346 345 343 342 345 348 349 350 349 349 348 347 346 346 346
321 320 319 319 320 320 321 323 325 326 327 329 333 337 338 338 337 336 336 336 336 336 337 337 338 338 339 340 340 340 341 341 341 343 344 345 346 345 346 346 345 345 345 344 344 345 347 346 345 346 346 346 345 346 345 346 347 347 346 345 344 342 342 344 347 349 350 350 350 349 348 348 348 347
322 321 320 319 319 320 320 322 325 326 327 328 331 334 336 337 338 337 337 336 335 336 336 337 337 338 339 339 339 339 339 339 340 343 344 345 345 345 345 345 345 344 344 344 344 344 346 346 346 346 346 345 345 345 345 346 347 347 345 343 342 341 342 345 348 350 350 350 350 350 350 350 350 349
324 323 322 319 319 319 319 320 323 325 326 327 330 333 335 337 338 338 338 337 336 336 336 336 337 338 338 339 339 338 338 338 340 342 343 343 344 344 345 345 345 345 344 344 344 344 346 346 346 346 346 345 344 345 345 346 347 346 344 343 343 342 342 344 345 347 348 349 349 349 349 349 349 349
325 325 325 322 319 319 320 320 321 323 325 325 326 330 333 336 338 339 338 338 337 336 335 335 336 337 338 339 338 338 338 338 339 340 341 342 343 343 344 345 345 345 345 344 343 345 346 346 346 346 346 345 345 345 344 345 345 345 344 343 342 340 340 341 341 343 344 345 346 346 346 346 347 347
327 327 327 324 321 320 321 321 320 322 324 324 324 326 328 332 336 338 339 338 338 337 335 335 335 336 336 337 338 338 339 338 339 340 340 341 343 343 343 345 345 344 345 345 344 345 347 347 346 346 345 344 344 344 343 344 344 345 344 342 341 340 339 339 339 339 340 341 342 343 343 343 345 345
327 327 327 326 323 321 322 322 320 320 321 323 323 324 326 328 332 337 339 338 337 337 336 336 336 336 337 337 338 338 338 339 339 340 340 341 343 344 344 345 345 343 346 347 345 346 348 347 346 346 345 344 344 344 343 343 343 344 344 342 341 340 339 339 339 338 338 338 339 341 342 342 343 345
328 327 327 327 325 323 323 323 321 320 321 322 322 323 326 329 332 335 338 338 337 337 337 337 336 337 337 337 338 338 339 339 339 339 340 341 343 345 344 345 344 344 347 346 344 346 347 347 346 346 345 345 344 344 343 343 342 343 343 342 341 340 339 339 339 338 338 338 338 339 341 341 342 344
328 328 328 328 327 326 325 325 323 320 320 321 321 322 324 327 330 333 336 338 338 337 338 338 337 337 337 337 338 339 340 339 339 339 340 342 343 344 344 344 345 346 346 345 344 345 347 346 346 346 346 346 345 343 343 343 343 342 342 342 341 340 339 338 339 338 337 337 338 339 339 341 342 342
329 329 328 328 327 327 327 327 325 322 321 321 321 322 323 324 326 329 332 336 338 338 339 338 338 338 338 338 339 340 340 340 340 340 341 342 342 342 343 343 344 345 345 344 344 345 346 346 346 346 347 347 345 344 343 343 343 342 342 341 340 339 339 338 338 338 336 336 338 339 340 341 341 341
326 325 325 325 325 325 325 327 327 325 323 321 321 321 322 322 324 325 327 330 332 334 336 338 338 338 339 339 340 340 340 340 339 339 341 341 341 342 342 342 342 343 343 343 343 344 345 346 346 346 347 347 347 345 344 343 343 342 341 341 340 339 338 338 338 337 336 336 338 339 340 340 340 341
321 321 322 322 323 323 323 326 327 326 324 323 322 321 321 321 321 322 324 326 327 327 330 333 335 337 338 339 340 339 340 339 339 340 340 339 338 339 338 335 336 339 340 341 342 343 343 344 345 345 345 346 346 346 345 343 343 342 340 341 342 340 339 338 338 337 337 336 337 338 339 339 340 340
320 321 321 322 322 322 322 325 327 327 326 325 324 323 322 322 321 321 322 324 325 325 326 327 329 332 335 337 337 337 337 337 337 338 337 336 336 337 334 332 334 337 338 339 341 342 342 343 343 343 343 344 345 346 346 345 344 343 341 341 342 342 340 339 338 337 337 336 336 337 338 338 338 339
320 322 322 322 322 322 322 323 325 327 327 327 326 326 325 324 322 320 320 322 324 324 324 325 325 327 329 330 331 333 334 334 335 335 335 335 337 337 336 336 336 336 336 337 339 339 339 340 341 341 341 342 341 341 342 343 344 344 343 343 343 343 341 339 338 338 337 336 336 336 337 337 338 338
321 323 324 324 324 324 323 324 324 325 327 327 327 327 326 326 324 321 319 321 322 323 323 323 324 324 325 326 327 329 330 332 334 334 334 335 336 335 335 336 335 335 335 336 337 337 338 338 337 337 338 338 338 337 338 338 338 339 341 341 341 342 342 340 339 338 337 336 337 337 336 337 336 336
323 325 325 325 325 325 325 324 324 324 326 327 327 327 326 326 325 324 322 321 321 320 321 321 322 322 323 324 325 326 328 329 331 333 333 334 333 332 332 331 331 332 333 333 334 336 337 337 336 336 336 337 337 337 337 336 335 336 336 336 337 340 342 341 339 338 337 337 338 337 337 337 336 336
325 325 325 325 325 325 324 324 324 325 325 326 326 327 327 326 326 326 325 325 323 321 320 321 321 321 321 322 323 325 326 328 330 330 331 331 330 330 329 328 328 329 330 331 334 336 336 337 337 338 337 337 338 338 337 337 337 336 335 336 337 339 340 341 340 338 338 338 338 338 339 339 338 336
325 324 323 323 322 322 322 322 323 324 325 325 325 326 326 326 326 327 327 326 326 324 323 322 323 323 323 322 323 323 324 327 328 329 329 329 329 328 327 326 325 325 325 328 331 334 335 336 337 338 338 338 338 338 337 337 339 338 336 337 339 338 338 339 339 339 339 338 338 339 340 341 340 338
320 319 318 317 316 317 317 318 319 320 321 323 324 325 325 326 326 326 326 326 326 326 325 324 324 324 324 324 323 323 323 324 326 327 328 327 326 325 324 323 323 323 323 324 326 328 331 332 333 335 338 339 339 338 335 335 336 336 336 338 339 338 338 339 339 339 339 338 338 338 340 340 339 338
313 313 312 311 311 311 312 313 313 313 315 316 319 320 321 323 325 325 326 326 325 326 326 326 326 325 324 324 325 324 323 322 323 325 325 325 324 324 323 323 322 322 322 322 322 323 324 325 326 328 332 336 338 336 333 331 330 328 330 334 337 338 338 338 338 338 338 338 338 338 338 338 337 337
309 308 308 308 307 307 307 308 309 309 310 311 312 313 314 316 319 322 324 325 325 326 325 325 325 326 326 326 325 325 325 323 322 322 324 325 324 323 323 323 322 322 321 321 321 321 320 320 321 322 325 329 332 330 327 326 325 325 326 330 333 335 336 336 336 336 336 336 335 334 335 336 336 336
306 305 305 305 305 304 305 305 305 306 306 307 308 308 309 310 312 314 318 320 322 324 324 323 324 325 326 325 326 326 325 325 324 323 323 324 325 324 323 323 322 321 321 321 320 320 320 320 320 320 321 324 325 324 323 323 323 324 326 328 330 332 334 334 335 335 335 335 333 332 334 336 336 335
304 303 302 302 302 302 302 302 302 303 303 304 305 305 306 306 307 309 312 315 317 320 321 320 320 321 321 321 322 324 324 324 324 324 323 324 325 325 324 323 322 321 322 322 321 321 321 321 321 320 321 323 323 322 324 327 326 323 324 326 327 329 330 331 332 333 335 336 336 335 334 334 333 333
302 301 300 299 299 299 299 299 299 300 301 302 303 303 303 304 305 307 309 311 312 313 314 314 314 315 316 317 320 322 323 323 323 323 324 324 324 324 325 325 324 323 323 322 322 321 321 321 321 321 321 321 322 322 325 328 327 324 323 324 325 325 326 328 328 328 330 332 332 330 330 330 330 330
299 299 298 298 297 297 297 296 296 297 298 299 300 301 302 302 303 304 305 305 306 307 308 309 310 312 314 315 318 320 321 321 322 323 322 323 324 324 325 325 325 324 325 324 322 322 321 321 321 321 321 320 320 321 324 325 325 324 324 324 323 322 322 323 323 323 324 326 325 324 323 325 325 325
297 297 297 296 296 296 296 295 295 295 295 296 297 298 299 299 300 300 301 301 302 303 305 306 307 309 311 313 316 317 318 318 320 322 323 323 323 323 324 324 324 324 325 324 322 322 322 323 322 321 321 321 320 320 322 324 324 324 323 322 321 321 320 321 321 321 322 322 322 321 320 321 320 321
296 295 295 295 295 295 295 295 295 294 294 295 295 295 296 297 297 297 298 299 299 300 302 305 306 307 308 311 313 314 315 316 317 320 322 324 324 324 323 323 323 323 324 323 322 322 324 324 324 323 322 322 322 321 322 322 322 323 322 321 322 322 321 321 321 322 322 321 320 319 319 319 319 318
Wind_Speed
26 26 29 31 33 34 33 29 24 22 23 25 25 26 26 20 12 10 10 10 12 16 19 18 17 17 21 24 24 26 27 27 26 25 27 27 27 25 23 22 22 22 23 23 23 22 21 21 21 20 21 21 22 23 24 25 25 26 27 27 27 27 27 27 28 28 28 28 27 26 26 25 24 23
26 27 29 31 32 32 30 27 25 23 23 24 24 26 27 23 17 15 12 11 14 16 17 18 16 14 16 18 19 22 24 23 22 24 26 26 25 23 22 21 20 19 20 20 19 19 19 19 18 19 19 20 21 22 23 24 25 26 27 27 27 27 27 28 28 28 28 28 27 26 26 25 25 24
23 25 27 27 28 28 26 24 24 24 24 24 24 24 25 24 24 23 15 10 15 18 17 18 17 14 15 15 16 18 20 18 18 21 24 24 21 20 20 20 19 18 18 18 17 17 17 17 17 18 18 19 21 22 23 24 25 26 26 27 27 27 27 27 27 27 27 27 26 26 26 26 25 25
22 24 25 26 28 29 26 25 25 25 24 25 24 24 24 24 26 27 19 12 16 21 20 18 17 15 15 16 16 17 19 18 18 19 22 22 18 16 16 18 18 18 17 16 15 15 15 15 16 17 17 18 19 20 21 22 23 24 25 26 26 26 26 26 26 26 27 27 26 26 27 27 26 25
24 25 26 28 31 31 28 25 26 26 25 25 25 24 24 24 25 28 23 15 16 21 22 21 20 17 16 17 17 18 19 19 20 20 20 19 16 14 15 16 17 17 15 14 14 14 15 16 17 18 19 20 20 20 21 21 22 23 24 25 25 26 26 26 26 26 26 27 27 27 28 28 27 26
25 25 27 30 33 32 29 27 28 28 25 25 25 25 25 26 27 27 26 19 16 20 22 22 22 21 19 19 19 18 19 19 19 20 19 17 16 17 17 17 17 16 15 14 14 15 17 18 19 20 21 22 22 22 23 23 23 24 24 25 25 26 26 27 27 27 27 27 28 29 29 29 28 28
26 27 27 29 34 34 31 29 29 29 28 26 26 26 26 27 27 26 26 23 19 21 23 22 21 21 20 20 20 20 20 19 18 19 19 18 19 21 21 20 19 18 17 16 16 17 18 20 21 21 22 22 22 22 23 23 24 24 24 24 25 25 26 26 27 28 28 29 29 29 29 29 29 29
27 27 26 29 34 35 33 29 27 29 30 27 27 27 28 29 28 26 26 25 23 21 21 21 22 21 20 20 20 19 20 19 20 21 21 21 22 22 23 22 21 21 20 19 19 19 19 20 21 22 23 23 23 23 23 23 23 24 24 24 25 25 26 27 28 28 29 29 29 29 29 29 29 28
30 27 27 30 32 33 33 30 26 28 31 32 32 32 31 30 29 28 26 26 24 22 22 21 21 20 19 19 19 19 19 19 20 21 21 21 22 22 22 23 23 23 22 21 21 21 21 21 21 22 23 23 23 24 23 23 23 23 23 24 24 25 26 27 29 30 30 30 30 29 29 29 29 28
29 28 29 30 30 31 33 30 28 29 30 32 34 34 33 31 30 29 28 27 25 23 24 23 22 21 20 19 19 19 19 19 18 18 19 20 21 22 21 22 22 23 23 23 22 22 22 22 22 23 23 24 24 24 24 24 24 23 23 23 23 24 25 26 28 29 30 31 30 30 29 30 29 29
27 27 29 30 29 30 31 30 31 31 31 33 35 34 34 33 30 28 28 28 26 23 23 24 24 24 23 20 18 18 19 20 19 18 17 17 19 20 21 21 21 21 22 22 22 22 22 22 23 23 23 24 24 24 25 25 24 24 23 23 23 23 24 25 26 27 28 29 29 28 28 29 29 29
28 27 27 28 28 28 31 32 33 31 30 32 33 32 32 30 27 26 26 26 26 23 22 23 24 24 23 21 20 19 19 19 20 19 17 17 17 16 18 21 20 19 20 20 19 20 21 21 23 24 24 24 24 24 25 25 24 24 24 23 24 24 25 26 26 26 26 26 25 25 26 26 28 29
29 28 28 27 27 28 30 32 33 32 30 30 30 30 33 32 28 27 26 25 24 23 22 23 22 21 21 20 20 20 21 19 18 18 17 17 16 15 17 19 18 17 17 18 19 19 21 21 21 21 21 22 23 23 24 24 24 24 23 23 23 24 25 26 25 25 24 24 23 23 24 25 26 28
29 29 28 28 27 28 30 32 34 34 34 34 34 34 35 34 31 29 26 25 26 24 22 23 22 20 21 22 21 21 21 21 19 18 18 18 18 16 16 17 17 17 15 16 17 19 20 19 17 16 16 17 18 21 23 24 24 23 23 22 22 23 25 25 24 24 23 22 22 23 23 25 26 27
28 28 26 24 25 26 27 29 32 35 36 36 38 39 37 35 33 30 28 29 30 28 25 24 24 22 23 24 23 22 23 22 20 19 19 19 19 17 14 13 13 14 13 13 14 15 16 15 13 13 13 13 13 16 20 23 23 22 21 20 21 22 23 22 22 22 23 22 22 23 23 24 24 25
29 29 27 20 17 21 23 25 27 31 35 37 39 41 42 41 39 36 34 33 32 30 28 26 25 24 25 24 23 23 23 22 20 20 20 20 20 18 15 13 12 10 10 12 11 10 11 11 11 12 13 11 11 13 18 21 21 20 19 19 19 20 19 19 19 21 21 22 22 22 22 22 21 21
28 28 29 26 20 17 19 23 25 27 29 33 37 40 43 45 45 44 42 40 37 33 29 28 28 27 26 25 24 24 24 21 20 20 20 20 19 18 16 16 14 10 9 11 10 9 10 10 11 13 12 11 11 12 15 19 19 18 18 17 17 17 17 17 17 18 19 20 20 20 20 20 19 19
26 27 27 27 25 23 20 20 22 24 26 28 31 36 42 45 45 46 47 46 44 41 35 32 31 29 27 26 24 24 24 22 20 20 21 21 20 19 18 17 14 11 10 12 11 10 10 12 14 14 12 11 11 12 13 16 18 18 17 17 16 15 16 17 17 18 18 17 17 17 17 17 17 17
25 25 24 24 24 22 20 21 21 23 26 27 27 30 37 40 38 39 45 48 48 47 43 38 34 30 29 28 25 23 24 24 22 21 20 20 19 17 16 15 14 13 13 13 12 11 10 12 14 14 11 10 11 11 12 14 17 17 16 16 16 15 15 16 17 17 17 16 15 14 14 14 15 15
22 22 21 22 24 22 21 24 24 21 21 26 27 27 32 35 34 34 39 45 49 49 45 42 39 34 31 30 29 26 24 25 24 21 18 17 16 14 14 14 15 15 14 15 16 14 12 12 13 12 10 10 11 10 10 12 16 16 15 15 14 14 14 13 14 15 16 16 15 14 14 13 12 13
21 22 22 23 25 26 27 28 29 25 19 19 25 28 31 34 35 35 35 38 46 50 48 45 42 38 33 31 32 30 28 27 25 21 18 17 17 15 13 12 14 15 14 15 18 16 14 13 13 11 9 10 10 10 10 13 15 15 14 14 13 12 12 12 13 13 13 13 14 14 14 14 14 14
21 21 22 23 25 27 29 29 29 28 24 17 16 23 30 32 32 33 33 33 38 46 50 48 44 41 37 33 32 33 32 30 27 24 22 20 18 17 15 13 14 14 14 16 18 16 15 13 13 11 9 9 10 10 10 13 16 16 15 13 12 12 12 12 13 14 13 13 13 13 13 13 14 15
22 22 23 24 25 26 27 28 29 29 27 25 19 14 20 28 31 33 36 35 33 37 46 49 46 44 41 36 34 33 33 32 30 29 28 25 21 19 18 17 13 10 12 18 20 17 15 14 14 12 10 7 7 9 9 11 16 17 15 13 12 12 12 12 13 14 14 14 15 15 14 14 14 16
23 24 23 23 25 26 25 27 29 29 27 27 26 22 16 14 22 30 36 37 32 32 41 46 46 45 42 37 34 33 32 32 32 32 32 28 23 22 21 18 15 11 10 16 21 18 15 14 15 15 12 8 5 7 8 10 15 18 16 13 12 12 12 11 11 12 13 14 15 16 16 16 16 17
22 23 23 22 22 24 25 26 29 29 28 28 30 28 23 17 13 17 28 35 33 31 36 41 41 40 38 35 34 32 32 33 33 33 32 29 25 23 21 18 17 15 11 13 19 19 15 14 15 14 13 10 6 6 8 10 14 17 16 12 11 11 12 11 11 10 11 12 14 16 18 18 18 18
19 21 22 22 20 21 23 24 27 30 29 28 31 31 24 17 11 9 18 27 32 32 32 33 34 34 33 34 34 32 31 33 34 33 31 28 25 23 21 19 16 14 13 13 18 21 17 15 15 14 12 11 9 7 8 9 11 15 17 13 10 10 11 11 11 11 11 11 12 14 16 18 18 18
18 20 22 22 20 20 20 21 24 29 30 29 30 31 28 22 13 7 10 16 27 33 32 30 30 32 32 33 33 32 30 31 33 32 29 26 24 22 22 20 16 13 13 14 17 20 18 14 15 15 14 12 10 8 8 9 10 13 16 15 12 11 11 10 10 10 11 12 12 12 13 15 16 16
18 20 21 21 19 18 19 19 20 24 27 29 29 28 29 28 23 14 7 4 12 23 27 28 28 29 32 33 31 31 31 30 30 31 29 27 26 25 24 23 19 15 15 14 14 17 16 13 13 15 14 13 12 10 9 9 10 12 14 12 11 12 13 12 9 7 9 12 13 12 13 16 17 16
16 18 18 17 16 15 16 16 16 19 23 26 28 28 28 29 29 26 20 15 10 4 8 20 25 27 31 32 29 29 29 26 25 27 27 26 24 23 23 23 18 13 13 13 13 14 13 12 12 13 14 14 13 11 10 9 10 12 13 11 10 9 10 10 9 8 8 12 13 12 12 14 16 18
15 15 15 14 13 13 14 14 14 15 18 23 26 28 28 28 28 28 27 23 23 23 15 4 11 17 23 28 27 26 26 25 23 22 23 23 20 16 17 18 15 11 12 14 13 11 11 11 11 12 14 15 13 10 9 9 10 12 12 12 10 8 9 10 10 8 8 11 13 13 11 10 12 15
15 14 13 12 11 12 13 13 12 12 15 19 23 25 26 27 26 25 25 23 23 26 26 19 14 14 16 19 20 20 20 19 19 19 19 19 17 14 14 16 13 11 12 13 12 10 9 9 11 11 13 14 13 9 6 7 10 11 11 12 10 8 8 10 10 9 8 9 11 13 13 12 12 14
15 15 13 12 13 14 15 14 13 13 14 15 18 20 23 25 25 24 23 23 22 25 28 27 25 24 22 18 17 17 16 15 15 16 16 15 15 15 15 14 11 10 11 10 10 11 10 8 11 12 12 12 12 10 6 6 7 7 9 11 11 7 8 9 10 9 9 9 8 10 12 12 13 14
15 14 13 13 13 15 17 17 16 17 16 15 16 18 19 22 24 24 23 23 21 21 24 26 27 27 27 24 22 20 17 14 12 13 13 12 13 14 14 13 11 10 11 8 7 10 10 9 10 11 9 7 7 8 8 8 8 6 4 6 8 7 7 8 8 9 10 10 8 8 9 9 11 13
12 12 11 12 12 13 14 15 16 17 18 17 16 16 17 18 20 21 21 21 21 21 21 21 21 23 24 23 23 22 19 16 13 12 12 12 13 14 14 12 10 9 9 8 7 9 10 8 7 7 6 5 4 2 5 8 9 10 8 6 6 6 7 7 7 8 9 8 7 7 7 7 7 9
10 12 12 12 13 13 13 13 14 14 16 17 16 16 16 16 16 16 17 17 18 18 19 18 17 17 18 19 20 20 19 16 13 13 14 14 14 16 17 16 13 10 10 11 11 11 11 11 10 9 8 7 4 3 2 4 6 8 9 9 8 6 6 6 7 7 7 6 6 6 6 7 7 7
11 13 13 13 13 14 14 14 14 13 13 15 16 16 16 15 14 14 14 14 15 15 15 14 13 13 14 15 16 17 16 14 13 13 15 15 16 18 19 18 17 15 15 17 17 14 12 10 9 8 7 5 3 2 2 2 2 4 7 8 7 6 5 6 6 6 7 7 8 7 7 7 7 7
13 13 14 14 14 14 14 15 16 15 14 15 15 15 15 15 14 12 12 13 14 14 14 13 12 11 12 13 14 14 14 13 14 15 15 15 16 17 18 17 17 17 18 18 17 15 13 10 8 6 4 3 2 1 2 3 4 4 4 4 4 4 5 5 6 6 7 7 8 9 8 6 6 6
14 14 14 15 15 15 15 15 16 17 17 17 17 16 15 15 14 12 10 11 12 13 13 13 12 12 11 12 12 12 12 11 13 14 14 13 14 15 16 15 15 16 16 15 13 12 11 9 8 7 4 3 2 1 2 3 4 5 4 3 3 3 4 4 5 5 6 6 7 8 7 6 6 7
16 15 15 15 16 16 16 16 17 17 17 18 19 19 18 19 19 17 14 13 11 10 10 10 11 11 10 10 11 10 9 8 8 10 10 10 11 12 13 13 12 13 14 14 13 12 10 8 8 7 6 4 4 4 3 2 4 6 5 4 3 3 4 4 3 4 5 6 7 8 7 6 6 6
16 16 16 16 16 17 18 18 18 18 19 19 19 19 20 22 23 23 22 19 15 11 8 9 11 12 12 11 10 10 9 7 5 5 5 6 8 9 10 11 12 12 12 12 11 11 10 9 8 6 5 5 5 5 5 3 3 5 6 5 3 2 2 3 3 3 4 5 6 7 7 6 5 4
15 15 15 16 16 17 18 19 19 20 23 24 23 22 23 25 25 24 25 25 24 19 15 13 13 13 14 14 12 11 10 9 6 3 2 2 4 7 8 9 10 10 10 9 8 8 8 8 7 6 5 4 4 4 3 2 1 2 3 2 2 2 2 3 3 3 3 4 5 5 3 3 3 4
14 14 15 16 16 17 18 19 20 20 22 24 25 25 25 25 26 26 27 28 29 28 24 20 15 14 15 16 15 12 9 7 7 6 4 2 1 4 6 7 8 8 9 9 9 8 8 7 7 7 6 5 4 3 2 1 2 2 2 2 2 3 4 4 4 3 2 4 6 5 3 3 3 3
15 14 15 15 16 18 19 20 21 20 19 20 21 22 22 23 25 27 27 27 27 26 24 22 18 15 14 15 15 13 11 9 8 7 5 4 3 4 6 8 8 9 9 9 9 9 10 10 10 9 8 8 7 5 3 3 3 3 3 4 5 5 5 5 5 4 4 4 5 4 3 3 2 2
16 15 15 15 16 17 18 20 22 23 22 20 19 20 20 20 21 23 24 25 23 21 19 19 19 17 16 17 18 16 14 12 10 8 7 6 4 4 6 7 8 9 8 6 5 7 9 12 14 13 12 12 11 8 5 5 5 5 6 6 6 6 5 5 4 4 4 5 5 5 5 6 4 3
15 16 16 16 16 16 17 18 21 23 25 26 25 24 23 22 21 21 22 23 23 20 18 18 18 17 17 19 20 19 17 15 13 11 10 9 6 3 2 2 3 4 4 4 5 5 6 7 11 13 12 10 10 8 6 6 7 7 7 7 6 5 5 4 4 4 3 3 4 4 5 5 6 5
Wind_Direction
256 254 252 250 250 251 248 244 241 239 240 239 237 239 243 247 252 255 254 250 249 245 241 244 243 239 248 254 252 254 257 259 259 258 255 255 254 253 251 250 250 251 251 251 251 251 251 252 252 252 252 253 255 255 256 256 255 254 254 253 254 254 255 257 258 260 261 262 261 260 261 260 258 258
260 255 253 251 250 249 248 245 239 233 235 238 236 238 241 241 240 247 255 252 250 249 242 239 240 238 244 251 253 255 256 256 255 254 253 253 252 251 249 247 247 248 246 244 244 244 246 248 249 250 252 253 254 255 255 255 255 254 253 252 253 254 254 255 257 259 261 260 258 258 260 259 257 256
260 255 252 249 246 246 246 244 240 232 229 233 235 236 236 234 234 237 247 257 250 247 245 244 243 240 242 247 248 250 252 250 250 252 251 251 251 250 247 243 240 239 239 238 239 241 243 246 248 250 252 253 254 255 255 255 255 254 253 252 253 254 254 255 257 258 258 255 254 256 257 257 256 255
262 258 255 250 247 247 244 240 240 236 228 227 231 234 233 232 231 230 234 249 251 247 247 251 251 245 243 245 243 244 248 250 251 252 251 250 250 248 244 237 232 231 233 234 236 241 243 246 250 252 254 255 255 255 255 255 254 254 254 253 253 253 254 255 256 256 255 253 252 254 256 256 255 254
268 263 258 255 253 250 244 238 238 237 230 227 230 232 232 231 229 226 228 239 252 252 249 249 250 249 247 246 241 239 244 250 252 252 251 250 249 248 244 237 231 228 229 235 241 245 248 251 255 258 260 259 257 256 256 255 254 253 252 253 254 255 255 255 256 256 255 254 254 256 256 256 254 252
275 269 263 260 259 253 245 240 238 236 232 230 231 230 229 231 231 227 226 232 245 250 249 247 247 246 245 245 242 238 240 244 246 246 250 253 255 256 252 244 239 233 233 243 251 252 253 255 258 260 261 261 260 259 259 258 256 254 252 252 253 255 256 257 257 257 258 257 257 257 255 253 252 249
280 273 266 262 262 257 247 241 238 235 234 233 232 231 230 233 234 229 225 227 234 245 248 247 247 244 240 241 243 241 240 240 240 241 248 255 259 261 257 250 244 240 240 248 254 254 255 257 258 260 261 261 261 261 261 261 259 257 255 254 255 256 256 257 258 259 259 259 259 257 254 250 248 248
285 275 268 268 267 259 249 242 236 233 234 234 232 233 235 234 233 230 226 224 228 238 245 245 244 244 241 239 240 240 240 241 243 246 249 255 258 258 254 249 245 243 244 250 253 253 254 256 258 260 260 261 261 262 262 262 261 260 259 258 258 258 259 259 259 259 258 257 257 256 253 249 247 247
292 281 273 273 270 259 249 244 237 232 232 234 233 235 236 234 232 231 228 226 225 229 239 243 243 242 241 240 239 237 238 241 245 247 248 251 254 253 249 246 244 244 247 250 252 252 253 256 258 260 260 261 262 263 263 262 261 261 261 261 261 261 261 261 260 259 257 256 255 254 251 248 246 246
292 284 277 273 267 257 250 244 239 236 232 231 232 234 234 231 231 231 230 229 226 225 233 241 242 240 239 240 239 235 234 237 241 244 245 247 248 248 246 244 244 247 250 251 252 253 255 259 261 261 261 261 261 261 261 260 260 260 261 263 263 262 262 262 262 261 258 255 254 253 250 247 244 244
291 286 279 273 265 258 252 244 241 240 234 232 233 232 232 231 231 230 229 229 229 228 232 236 239 240 239 238 238 235 231 232 236 239 242 244 243 243 243 244 245 248 252 254 255 256 259 261 264 264 263 261 259 258 258 257 256 257 259 261 261 261 263 264 264 262 259 256 253 252 250 245 242 241
295 289 281 273 266 259 253 246 244 241 237 236 235 231 229 229 228 228 228 228 229 229 230 234 237 239 238 235 235 234 229 228 232 233 237 242 242 240 243 245 244 245 250 253 256 259 260 260 264 266 264 261 258 256 256 256 255 255 256 258 259 261 265 266 263 260 258 256 253 250 247 242 238 238
301 295 285 274 266 259 255 250 247 244 240 237 234 230 230 229 226 226 227 228 228 228 229 233 234 234 234 232 232 231 225 225 230 230 231 239 243 243 247 249 247 244 246 250 253 256 258 261 265 266 265 262 259 256 255 254 253 252 252 255 258 260 265 266 261 256 255 254 251 247 243 240 238 239
313 305 291 276 267 262 258 254 251 248 245 240 238 236 233 229 226 226 225 225 225 225 227 230 230 230 231 230 229 229 226 223 226 227 227 234 240 243 247 251 249 243 238 242 246 251 256 260 261 260 259 260 258 256 254 253 252 251 251 252 255 259 264 263 256 251 250 249 246 245 244 242 241 241
324 322 309 284 266 261 259 256 253 251 248 244 242 240 235 231 229 227 224 225 224 224 226 228 227 227 229 228 225 227 226 220 219 223 227 230 232 234 239 246 246 236 228 229 235 244 252 252 248 247 250 251 252 252 254 254 253 250 248 249 253 258 261 257 250 247 246 245 245 246 246 244 242 241
334 338 337 322 285 266 262 258 255 253 250 246 244 242 239 238 237 232 229 230 228 224 224 226 225 224 226 226 222 224 225 218 214 218 222 225 228 229 231 238 240 231 220 218 220 231 239 235 235 242 244 244 247 250 254 255 251 245 243 245 251 257 255 249 247 245 244 244 245 245 244 241 239 237
343 344 346 348 339 314 291 273 262 256 251 248 245 244 242 240 240 237 235 236 234 229 225 224 225 224 224 223 221 222 221 214 209 214 218 221 225 227 228 234 237 228 211 209 215 229 229 221 233 244 242 241 245 249 254 253 244 236 237 242 251 254 249 243 245 246 243 243 244 242 239 237 234 232
348 351 349 349 349 345 333 312 288 272 260 250 243 241 240 239 238 237 236 236 235 233 230 228 228 226 223 222 222 220 217 211 207 211 215 217 219 223 228 236 237 227 214 212 220 236 230 220 232 243 243 244 246 246 251 247 234 228 232 239 248 253 247 240 241 244 243 243 244 242 238 235 232 230
351 355 352 348 346 341 338 337 321 295 275 259 245 235 235 235 234 234 233 232 232 232 231 231 232 229 225 224 224 221 217 215 213 213 217 216 213 217 227 234 232 225 221 218 220 235 235 219 228 240 241 244 247 244 247 241 226 222 230 239 245 251 248 243 241 243 243 242 242 241 237 232 227 223
352 352 350 348 348 342 340 346 343 322 292 270 255 242 237 234 231 230 232 232 232 230 229 229 231 231 229 227 226 224 223 224 222 219 222 219 212 215 222 226 225 221 218 215 216 231 238 223 225 237 235 235 238 236 241 234 220 220 230 237 241 245 244 241 239 241 239 236 236 234 229 223 218 215
348 350 354 353 351 348 348 352 351 346 328 288 261 250 244 240 234 231 231 231 232 232 230 228 227 229 230 228 228 228 229 232 226 219 220 219 214 217 220 220 221 217 213 211 213 226 235 223 221 229 225 226 231 231 232 224 214 218 227 229 234 238 236 231 229 231 230 229 230 228 220 215 214 212
341 347 353 355 353 350 351 354 354 355 354 334 289 260 249 243 239 235 229 225 228 230 229 228 226 225 227 227 227 230 232 232 225 217 217 218 213 213 216 218 219 215 213 212 209 218 229 221 215 218 217 221 227 227 230 224 214 215 220 222 228 233 231 226 225 225 224 222 222 219 212 210 209 203
334 342 349 353 355 353 353 356 357 360 3 2 349 311 264 245 240 238 231 222 219 220 222 223 223 223 224 224 226 229 230 229 225 220 221 220 215 213 215 216 215 212 215 211 204 208 220 215 208 209 210 217 218 211 220 223 212 209 214 219 225 230 231 229 227 225 223 221 222 222 217 212 206 196
329 336 343 350 357 357 356 357 360 2 5 5 5 2 340 285 253 244 234 223 213 210 213 217 219 221 221 221 222 224 224 224 225 223 223 221 217 216 217 215 214 215 214 206 201 205 213 207 202 207 215 227 217 190 201 213 206 204 211 216 219 224 227 227 228 229 225 220 219 220 218 214 209 202
329 333 336 341 350 357 357 358 0 1 3 7 10 11 2 340 300 253 230 216 208 207 208 210 213 216 216 216 217 218 218 219 220 221 222 220 219 220 219 215 214 213 208 203 201 202 202 196 195 201 211 223 217 181 189 206 205 204 208 209 211 219 222 220 222 228 229 223 216 214 212 211 212 210
329 332 335 336 340 349 354 359 2 2 3 7 12 14 7 351 330 274 228 209 202 203 204 203 206 208 208 210 212 212 212 212 214 218 220 219 220 223 220 218 218 213 207 205 202 198 196 193 194 195 198 207 208 193 191 200 201 203 206 206 207 214 217 215 213 219 227 224 213 210 209 210 213 214
327 331 335 337 338 342 347 354 3 6 8 8 9 14 16 12 3 313 255 218 200 198 197 197 200 203 204 207 208 206 205 207 210 213 216 217 219 221 219 218 221 218 210 204 197 196 198 198 197 196 195 195 197 198 203 202 195 197 206 210 210 211 214 211 204 213 224 214 199 198 203 205 208 208
327 331 335 338 341 343 346 352 1 8 13 14 12 14 19 23 27 23 353 273 207 198 194 192 194 198 200 201 202 201 202 207 211 212 214 218 219 219 217 215 214 214 213 207 198 198 201 202 201 199 196 194 194 198 205 200 188 190 200 204 207 214 218 211 200 204 213 202 192 195 200 200 204 204
335 336 337 339 344 351 355 358 2 9 17 21 19 16 18 24 29 31 33 38 46 68 182 190 190 192 195 196 197 198 199 204 209 209 212 215 214 211 214 214 212 212 216 212 206 204 204 203 203 200 198 199 200 200 200 192 182 187 193 193 196 209 213 204 195 196 199 194 193 196 195 196 200 200
349 346 346 346 350 2 9 10 8 8 17 26 26 22 22 25 28 28 31 39 45 42 40 91 163 170 182 189 191 194 198 201 204 206 206 204 199 195 200 202 201 208 213 208 206 209 208 208 208 205 204 208 210 206 199 189 178 179 188 190 187 190 199 197 191 191 190 190 193 193 187 188 193 191
357 354 354 358 4 14 21 22 18 13 16 25 29 28 26 28 30 32 34 38 46 50 47 46 66 100 133 156 166 174 182 183 184 187 190 190 185 182 183 183 187 201 208 206 207 210 208 209 211 208 203 206 209 207 197 191 183 174 180 192 191 180 182 188 187 187 186 184 188 193 192 193 195 190
1 3 7 14 18 22 27 29 28 26 23 25 29 30 29 29 30 33 39 42 44 52 55 53 56 66 78 91 107 125 137 144 155 168 174 175 174 176 177 174 174 188 200 206 210 209 204 203 205 202 197 199 206 208 208 216 210 183 170 187 197 183 167 176 183 185 181 173 176 190 194 196 200 200
5 6 11 15 16 17 22 24 25 28 29 28 30 32 32 32 30 31 37 40 38 44 54 57 56 59 62 64 70 83 96 108 129 153 162 158 154 157 162 160 159 175 188 191 192 195 198 201 201 196 189 185 199 216 220 223 235 238 199 184 193 186 172 177 180 176 175 175 176 183 189 193 201 206
10 4 5 10 10 10 14 17 18 24 29 30 30 33 35 37 36 34 36 39 38 42 49 54 57 60 62 63 63 66 73 82 99 121 135 139 135 131 131 130 131 149 165 158 151 164 173 173 171 168 159 142 136 191 208 204 219 237 236 220 214 205 188 182 178 174 177 179 176 178 185 190 196 202
16 6 4 9 10 9 12 13 11 17 28 33 32 32 36 39 39 38 38 39 39 42 47 51 55 60 64 68 69 67 67 72 83 97 108 115 118 116 112 107 102 107 116 115 118 132 142 142 141 138 135 129 119 109 142 174 203 224 226 223 222 212 193 185 181 179 181 180 174 178 188 194 197 197
19 12 10 9 10 10 9 9 7 9 19 26 29 32 34 35 36 39 43 42 41 44 49 50 52 60 69 76 79 78 75 73 76 84 93 99 104 105 102 96 92 89 85 84 90 102 111 119 131 133 126 124 133 125 100 104 156 191 204 213 213 197 189 190 184 179 183 187 187 188 193 198 200 196
19 16 16 13 12 12 10 8 8 10 12 18 26 32 30 27 29 34 41 47 48 49 51 50 49 54 62 70 76 82 82 76 73 78 88 98 101 100 97 93 90 87 81 77 80 87 91 93 103 116 119 117 122 116 91 85 94 121 156 183 190 187 194 193 180 175 184 192 196 198 201 201 198 198
25 21 20 16 13 13 13 12 13 14 14 18 29 37 35 32 32 34 38 43 44 44 46 47 45 45 46 48 52 60 70 74 72 74 84 96 103 102 100 97 94 91 89 85 82 82 81 77 74 78 90 109 106 85 76 63 55 62 85 114 131 144 161 172 175 179 186 192 194 196 201 204 199 199
34 29 25 22 18 16 17 17 17 16 17 20 26 32 37 40 42 42 41 41 41 40 37 32 28 26 27 28 27 30 44 65 76 77 83 95 107 112 110 108 105 103 99 95 92 90 89 82 73 69 73 95 124 130 124 77 31 33 53 75 92 109 120 132 164 194 204 210 209 201 195 196 196 195
38 35 30 26 24 23 23 24 22 23 26 28 27 29 36 42 44 43 44 46 47 46 38 30 23 15 12 13 13 14 23 40 65 92 103 107 118 126 126 121 120 119 115 112 112 111 108 103 98 90 85 99 124 133 126 101 41 34 48 59 64 89 117 127 142 171 193 207 211 206 197 189 180 174
35 35 32 29 27 25 25 27 28 30 34 39 40 39 40 43 44 44 45 48 49 48 43 37 31 24 23 25 21 20 26 29 29 45 89 127 138 141 142 140 138 137 133 134 139 137 128 124 124 123 119 127 139 127 103 93 36 3 23 45 72 102 127 138 139 148 174 181 178 176 168 156 150 149
33 34 32 31 31 29 29 31 33 33 34 37 40 41 40 41 42 44 47 48 48 46 42 37 31 26 28 29 27 27 31 23 13 18 18 338 223 177 174 173 170 167 166 169 171 165 156 156 156 151 149 156 158 146 130 178 212 231 237 218 181 151 145 145 140 133 140 157 157 145 121 118 139 157
32 32 30 28 29 30 32 33 35 34 30 28 30 32 34 35 37 40 41 42 42 40 37 33 30 26 24 23 24 29 33 25 12 6 355 334 298 249 229 217 211 211 208 200 194 189 187 188 184 175 171 176 180 183 187 177 170 172 178 180 177 170 166 167 164 158 156 161 165 165 156 152 146 156
33 31 29 27 26 27 28 31 34 36 34 30 28 29 29 29 30 32 33 34 33 30 27 26 28 28 26 26 26 25 26 26 20 7 348 339 328 287 261 243 231 230 225 215 215 223 218 206 196 190 187 188 191 192 180 164 161 156 149 149 149 144 138 136 142 150 158 172 188 200 201 198 196 191
35 34 34 32 30 28 28 28 31 34 37 38 38 37 33 30 29 30 29 30 30 27 21 20 22 23 26 30 31 28 24 21 18 14 9 4 360 344 307 259 222 224 225 213 209 225 238 227 210 202 197 194 196 195 184 174 172 163 153 152 150 140 128 121 123 128 135 156 188 209 215 217 220 218